CZ-4B R/B (27432 NORAD) Tracking and Keplerian Element Data

This shows tracking and keplerian element data for the satellite.

Feedback or suggestion? Click here.




ElementValue
Catalog27432
NameCZ-4B R/B
Epoch Orbit85594
Epoch Day349.06188369
Epoch Year2018
RAAN332.7963
Inclination99.0535
Eccentricity0.0049599
Argument of Perigee290.0189
Mean Anonmoly110.9326
Mean Motion14.14073504
Decay Rate-1.7E-07
L11 27432U 02024C 18349.06188369 -.00000017 00000-0 15160-4 0 9998
L22 27432 99.0535 332.7963 0049599 290.0189 110.9326 14.14073504855941

Live tracking and technical data element details for CZ-4B R/B (NORAD 27432). CZ-4B R/B can be tracked NOW for your location showing map with azimuth and elevation plus other details from your city location.

Track the satellite on the map from your city or location and see movement details for azimuth, elevation, latitude, longitude, range, height, and movement on the map or in text.







IsCatalogInMostPopularTable: catalog: 27432, numindb: 38
Update: records affected: 1



GetName: 27432 CZ-4B R/B

Hit Count: updated at: Sun, 16 Dec 2018 03:00:17 GMT